Redmond, OR

5:14 AM PDT on July 22, 2017 (GMT -0700)
Roberts Field Airport

Weather History for KRDM - November, 2010

Change the Weather History Date:

Tuesday, November 9, 2010

  Actual Average Record
Temperature  
Mean Temperature 31 °F 40 °F  
Max Temperature 43 °F 52 °F 70 °F (2016)
Min Temperature 19 °F 27 °F 12 °F (1975)
Degree Days  
Heating Degree Days 34 25  
Month to date heating degree days 176 216  
Since 1 July heating degree days 1095 1161  
Cooling Degree Days 0 0  
Month to date cooling degree days 0 0  
Year to date cooling degree days 161 222  
Moisture  
Dew Point 30 °F    
Average Humidity 80    
Maximum Humidity 96    
Minimum Humidity 64    
Precipitation  
Precipitation 0.10 in 0.04 in 0.81 in (1984)
Month to date precipitation 0.15 0.28  
Year to date precipitation 8.93 7.06  
Sea Level Pressure  
Sea Level Pressure 29.85 in    
Wind  
Wind Speed 5 mph (SE)    
Max Wind Speed 16 mph    
Max Gust Speed 20 mph    
Visibility 8 miles    
Events Rain , Snow    
T = Trace of Precipitation, MM = Missing Value Source: NWS Daily Summary

Daily Weather History Graph

Daily Weather History Graph

Search for Another Location

Airport or City:

Trip Planner

Search our weather history database for the weather conditions in past years. The results will help you decide how hot, cold, wet, or windy it might be!

Date:

Astronomy

Nov. 09, 2010 Rise Set
Actual Time 6:52 AM PST 4:43 PM PST
Civil Twilight 6:21 AM PST 5:14 PM PST
Nautical Twilight 5:46 AM PST 5:49 PM PST
Astronomical Twilight 5:12 AM PST 6:23 PM PST
Moon 10:42 AM PST (11/9) 7:42 PM PST (11/9)
Length of Visible Light 10h 53m
Length of Day
9h 51m
Waxing Crescent, 15% of the Moon is Illuminated
Nov 9
Waxing Crescent
Nov 13
First Quarter
Nov 21
Full
Nov 28
Last Quarter
Dec 5
New

Hourly Weather History & Observations

Time (PST) Temp. Windchill Dew Point Humidity Pressure Visibility Wind Dir Wind Speed Gust Speed Precip Events Conditions
12:56 AM 21.9 °F - 19.9 °F 92% 30.09 in 10.0 mi Calm Calm - N/A   Clear
1:56 AM 19.0 °F 12.3 °F 17.1 °F 92% 30.08 in 10.0 mi SSE 4.6 mph - N/A   Clear
2:56 AM 26.1 °F 17.6 °F 23.0 °F 88% 30.05 in 10.0 mi SSE 8.1 mph - N/A   Clear
3:56 AM 25.0 °F 19.3 °F 21.9 °F 88% 30.04 in 10.0 mi South 4.6 mph - N/A   Clear
4:56 AM 26.6 °F 18.2 °F 21.2 °F 80% 29.97 in 10.0 mi SSE 8.1 mph - N/A   Mostly Cloudy
5:56 AM 30.0 °F 20.5 °F 21.9 °F 72% 29.97 in 10.0 mi SSE 11.5 mph - N/A   Overcast
6:56 AM 30.9 °F 24.3 °F 21.9 °F 69% 29.97 in 10.0 mi SE 6.9 mph - N/A   Mostly Cloudy
7:56 AM 34.0 °F 29.8 °F 23.0 °F 64% 29.94 in 10.0 mi ESE 4.6 mph - N/A   Overcast
8:56 AM 35.1 °F 30.1 °F 25.0 °F 67% 29.94 in 2.0 mi South 5.8 mph - 0.00 in Snow Light Snow
9:09 AM 35.6 °F 29.9 °F 26.6 °F 70% 29.88 in 4.0 mi SSE 6.9 mph - 0.00 in Snow Light Snow
9:56 AM 39.9 °F 32.9 °F 25.0 °F 55% 29.90 in 10.0 mi SE 11.5 mph 17.3 mph 0.00 in   Partly Cloudy
10:46 AM 37.4 °F 32.1 °F 26.6 °F 65% 29.82 in 1.8 mi SE 6.9 mph - 0.01 in Snow Light Snow
10:56 AM 37.0 °F 31.6 °F 28.9 °F 73% 29.89 in 2.5 mi SE 6.9 mph - 0.01 in Snow Light Snow
11:01 AM 37.4 °F 31.4 °F 30.2 °F 75% 29.82 in 3.0 mi SSE 8.1 mph - 0.00 in Snow Light Snow
11:56 AM 37.9 °F - 30.9 °F 76% 29.85 in 2.0 mi Calm Calm - 0.00 in Rain Light Rain
12:06 PM 33.8 °F 26.4 °F 32.0 °F 93% 29.81 in 1.5 mi South 9.2 mph - 0.03 in Snow Snow
12:17 PM 33.8 °F 29.6 °F 32.0 °F 93% 29.79 in 4.0 mi SE 4.6 mph - 0.05 in Snow Snow
12:26 PM 33.8 °F 28.6 °F 33.8 °F 100% 29.79 in 10.0 mi SE 5.8 mph - 0.05 in   Overcast
12:38 PM 35.6 °F 29.2 °F 33.8 °F 93% 29.77 in 6.0 mi ESE 8.1 mph - 0.05 in Rain Light Rain
12:40 PM 35.6 °F 29.2 °F 33.8 °F 93% 29.77 in 2.0 mi ESE 8.1 mph - 0.06 in Snow Light Snow
12:51 PM 35.6 °F 32.8 °F 33.8 °F 93% 29.78 in 4.0 mi ESE 3.5 mph - 0.06 in Snow Light Snow
12:56 PM 35.6 °F 32.8 °F 33.8 °F 93% 29.78 in 6.0 mi SE 3.5 mph - N/A Snow Light Snow
1:56 PM 37.9 °F 30.9 °F 35.1 °F 89% 29.82 in 10.0 mi SSE 10.4 mph - 0.02 in Rain Light Rain
2:36 PM 37.4 °F 31.4 °F 35.6 °F 93% 29.74 in 10.0 mi SSE 8.1 mph - 0.00 in   Overcast
2:56 PM 37.9 °F 34.4 °F 36.0 °F 93% 29.80 in 10.0 mi SE 4.6 mph - 0.00 in   Mostly Cloudy
3:16 PM 39.2 °F 35.9 °F 35.6 °F 87% 29.74 in 10.0 mi East 4.6 mph - N/A   Mostly Cloudy
3:56 PM 37.9 °F - 36.0 °F 93% 29.78 in 10.0 mi Calm Calm - 0.00 in   Overcast
4:56 PM 37.9 °F 31.5 °F 36.0 °F 93% 29.78 in 10.0 mi South 9.2 mph - 0.01 in Rain Light Rain
5:56 PM 35.1 °F 29.3 °F 34.0 °F 96% 29.77 in 10.0 mi SE 6.9 mph - 0.00 in   Mostly Cloudy
6:03 PM 35.6 °F 30.7 °F 33.8 °F 93% 29.73 in 10.0 mi SSE 5.8 mph - N/A   Partly Cloudy
6:56 PM 37.0 °F 32.4 °F 34.0 °F 89% 29.77 in 10.0 mi South 5.8 mph - N/A   Mostly Cloudy
7:56 PM 37.0 °F 33.3 °F 34.0 °F 89% 29.78 in 10.0 mi Variable 4.6 mph - N/A   Overcast
8:56 PM 33.1 °F - 32.0 °F 96% 29.81 in 10.0 mi Calm Calm - N/A   Partly Cloudy
9:56 PM 32.0 °F - 30.0 °F 92% 29.82 in 10.0 mi Calm Calm - N/A   Scattered Clouds
10:56 PM 32.0 °F 27.5 °F 30.2 °F 93% 29.79 in 10.0 mi East 4.6 mph - N/A   Partly Cloudy
11:56 PM 32.0 °F 27.5 °F 30.0 °F 92% 29.86 in 10.0 mi ESE 4.6 mph - N/A   Mostly Cloudy